| time (UTC) | temp F | wind direction | speed MPH | gust MPH | rain 1hr in | rain 24hr in | rain mn in | humidity % | barometer mb |
| 20260505195504 | 85 | 200 | 2.0 | 7.0 | 0.00 | 0.00 | 0.00 | 64 | 992.7 |
| 20260505195004 | 85 | 299 | 3.0 | 6.0 | 0.00 | 0.00 | 0.00 | 64 | 992.7 |
| 20260505194504 | 85 | 280 | 2.0 | 6.0 | 0.00 | 0.00 | 0.00 | 65 | 992.9 |
| 20260505194004 | 84 | 321 | 5.0 | 9.0 | 0.00 | 0.00 | 0.00 | 66 | 992.9 |
| 20260505193504 | 84 | 34 | 1.0 | 10.0 | 0.00 | 0.00 | 0.00 | 67 | 993.1 |
| 20260505193004 | 84 | 288 | 3.0 | 8.0 | 0.00 | 0.00 | 0.00 | 66 | 992.9 |
| 20260505192504 | 83 | 288 | 5.0 | 8.0 | 0.00 | 0.00 | 0.00 | 67 | 993.2 |
| 20260505192004 | 83 | 332 | 3.0 | 7.0 | 0.00 | 0.00 | 0.00 | 68 | 993.2 |
| 20260505191504 | 83 | 274 | 2.0 | 10.0 | 0.00 | 0.00 | 0.00 | 68 | 993.3 |
| 20260505191004 | 83 | 189 | 3.0 | 10.0 | 0.00 | 0.00 | 0.00 | 68 | 993.2 |
| 20260505190504 | 83 | 268 | 3.0 | 10.0 | 0.00 | 0.00 | 0.00 | 68 | 993.2 |
| 20260505190004 | 83 | 303 | 4.0 | 9.0 | 0.00 | 0.00 | 0.00 | 68 | 993.2 |
| 20260505185504 | 83 | 8 | 2.0 | 9.0 | 0.00 | 0.00 | 0.00 | 69 | 993.3 |
| 20260505185004 | 83 | 337 | 5.0 | 8.0 | 0.00 | 0.00 | 0.00 | 68 | 993.4 |
| 20260505184004 | 82 | 314 | 3.0 | 7.0 | 0.00 | 0.00 | 0.00 | 71 | 993.5 |
| 20260505183504 | 81 | 210 | 3.0 | 6.0 | 0.00 | 0.00 | 0.00 | 71 | 993.6 |
| 20260505182505 | 82 | 317 | 3.0 | 8.0 | 0.00 | 0.00 | 0.00 | 70 | 993.8 |
| 20260505182004 | 81 | 269 | 4.0 | 9.0 | 0.00 | 0.00 | 0.00 | 72 | 993.8 |
| 20260505181504 | 80 | 310 | 2.0 | 9.0 | 0.00 | 0.00 | 0.00 | 72 | 993.9 |
| 20260505181004 | 80 | 353 | 4.0 | 9.0 | 0.00 | 0.00 | 0.00 | 72 | 994.0 |
| 20260505180504 | 81 | 306 | 3.0 | 7.0 | 0.00 | 0.00 | 0.00 | 71 | 994.1 |
| 20260505180004 | 79 | 286 | 3.0 | 8.0 | 0.00 | 0.00 | 0.00 | 74 | 994.2 |
| 20260505175504 | 78 | 350 | 5.0 | 9.0 | 0.00 | 0.00 | 0.00 | 75 | 994.2 |
| 20260505175004 | 79 | 317 | 3.0 | 9.0 | 0.00 | 0.00 | 0.00 | 75 | 994.3 |
| 20260505174504 | 78 | 311 | 3.0 | 9.0 | 0.00 | 0.00 | 0.00 | 76 | 994.4 |
| 20260505174004 | 77 | 339 | 2.0 | 9.0 | 0.00 | 0.00 | 0.00 | 76 | 994.5 |
| 20260505173004 | 77 | 304 | 3.0 | 7.0 | 0.00 | 0.00 | 0.00 | 78 | 994.3 |
| 20260505172505 | 76 | 354 | 2.0 | 7.0 | 0.00 | 0.00 | 0.00 | 79 | 994.5 |
| 20260505172004 | 76 | 7 | 1.0 | 9.0 | 0.00 | 0.00 | 0.00 | 79 | 994.5 |
| 20260505171504 | 76 | 321 | 2.0 | 3.0 | 0.00 | 0.00 | 0.00 | 80 | 994.6 |
| 20260505171004 | 76 | 11 | 1.0 | 10.0 | 0.00 | 0.00 | 0.00 | 80 | 994.6 |
| 20260505170504 | 75 | 337 | 4.0 | 10.0 | 0.00 | 0.00 | 0.00 | 81 | 994.5 |
| 20260505170004 | 75 | 292 | 3.0 | 7.0 | 0.00 | 0.00 | 0.00 | 81 | 994.6 |
| 20260505165504 | 75 | 93 | 1.0 | 7.0 | 0.00 | 0.00 | 0.00 | 81 | 994.5 |
| 20260505165004 | 75 | 194 | 1.0 | 7.0 | 0.00 | 0.00 | 0.00 | 81 | 994.6 |
| 20260505164504 | 75 | 275 | 3.0 | 8.0 | 0.00 | 0.00 | 0.00 | 81 | 994.5 |
| 20260505164004 | 74 | 271 | 3.0 | 12.0 | 0.00 | 0.00 | 0.00 | 82 | 994.5 |
| 20260505163504 | 75 | 317 | 4.0 | 12.0 | 0.00 | 0.00 | 0.00 | 81 | 994.5 |
| 20260505163004 | 74 | 38 | 2.0 | 6.0 | 0.00 | 0.00 | 0.00 | 82 | 994.5 |
| 20260505162505 | 74 | 356 | 2.0 | 6.0 | 0.00 | 0.00 | 0.00 | 83 | 994.7 |
| 20260505162004 | 73 | 345 | 2.0 | 7.0 | 0.00 | 0.00 | 0.00 | 84 | 994.8 |
| 20260505160504 | 73 | 38 | 2.0 | 8.0 | 0.00 | 0.00 | 0.00 | 85 | 994.5 |
| 20260505153005 | 73 | 311 | 3.0 | 9.0 | 0.00 | 0.00 | 0.00 | 85 | 994.5 |
| 20260505152504 | 72 | 336 | 3.0 | 9.0 | 0.00 | 0.00 | 0.00 | 85 | 994.6 |
| 20260505152004 | 72 | 21 | 2.0 | 9.0 | 0.00 | 0.00 | 0.00 | 86 | 994.5 |
| 20260505151504 | 72 | 249 | 2.0 | 5.0 | 0.00 | 0.00 | 0.00 | 86 | 994.6 |
| 20260505151004 | 72 | 98 | 2.0 | 7.0 | 0.00 | 0.00 | 0.00 | 86 | 994.5 |
| 20260505150504 | 72 | 317 | 1.0 | 9.0 | 0.00 | 0.00 | 0.00 | 87 | 994.6 |
| 20260505140504 | 71 | 294 | 2.0 | 7.0 | 0.00 | 0.00 | 0.00 | 87 | 993.9 |
| 20260505125004 | 70 | 307 | 4.0 | 8.0 | 0.00 | 0.00 | 0.00 | 88 | 993.3 |
| 20260505124504 | 70 | 268 | 3.0 | 6.0 | 0.00 | 0.00 | 0.00 | 88 | 993.4 |
| 20260505124004 | 70 | 31 | 5.0 | 8.0 | 0.00 | 0.00 | 0.00 | 88 | 993.3 |
| 20260505123504 | 70 | 307 | 2.0 | 9.0 | 0.00 | 0.00 | 0.00 | 88 | 993.2 |
| 20260505123004 | 70 | 291 | 3.0 | 7.0 | 0.00 | 0.00 | 0.00 | 88 | 993.1 |
| 20260505122004 | 70 | 5 | 5.0 | 8.0 | 0.00 | 0.00 | 0.00 | 89 | 992.9 |
| 20260505121504 | 69 | 293 | 4.0 | 8.0 | 0.00 | 0.00 | 0.00 | 89 | 992.7 |
| 20260505121004 | 69 | 348 | 4.0 | 12.0 | 0.00 | 0.00 | 0.00 | 89 | 992.7 |
| 20260505120504 | 69 | 278 | 3.0 | 9.0 | 0.00 | 0.00 | 0.00 | 89 | 992.5 |
| 20260505120005 | 69 | 309 | 3.0 | 12.0 | 0.00 | 0.00 | 0.00 | 89 | 992.5 |
| 20260505115504 | 69 | 345 | 1.0 | 3.0 | 0.00 | 0.00 | 0.00 | 89 | 992.4 |
| 20260505115004 | 69 | 208 | 2.0 | 6.0 | 0.00 | 0.00 | 0.00 | 89 | 992.3 |
| 20260505114004 | 69 | 290 | 1.0 | 7.0 | 0.00 | 0.00 | 0.00 | 89 | 992.3 |
| 20260505112504 | 70 | 351 | 3.0 | 6.0 | 0.00 | 0.00 | 0.00 | 89 | 992.5 |
| 20260505112004 | 70 | 288 | 4.0 | 10.0 | 0.00 | 0.00 | 0.00 | 88 | 992.4 |
| 20260505111504 | 70 | 314 | 3.0 | 8.0 | 0.00 | 0.00 | 0.00 | 88 | 992.5 |
| 20260505111004 | 70 | 270 | 4.0 | 8.0 | 0.00 | 0.00 | 0.00 | 88 | 992.2 |
| 20260505110504 | 70 | 0 | 3.0 | 8.0 | 0.00 | 0.00 | 0.00 | 88 | 992.4 |
| 20260505102004 | 70 | 336 | 2.0 | 9.0 | 0.00 | 0.00 | 0.00 | 88 | 992.7 |
| 20260505101504 | 70 | 315 | 3.0 | 9.0 | 0.00 | 0.00 | 0.00 | 88 | 992.7 |
| 20260505100504 | 70 | 338 | 2.0 | 6.0 | 0.00 | 0.00 | 0.00 | 88 | 992.9 |
| 20260505100004 | 70 | 335 | 3.0 | 6.0 | 0.00 | 0.00 | 0.00 | 88 | 992.8 |
| 20260505095504 | 70 | 324 | 3.0 | 12.0 | 0.00 | 0.00 | 0.00 | 88 | 993.0 |
| 20260505095004 | 70 | 283 | 3.0 | 9.0 | 0.00 | 0.00 | 0.00 | 88 | 992.9 |
| 20260505094504 | 70 | 273 | 4.0 | 10.0 | 0.00 | 0.00 | 0.00 | 88 | 993.0 |
| 20260505094004 | 70 | 307 | 3.0 | 10.0 | 0.00 | 0.00 | 0.00 | 88 | 992.8 |
| 20260505093504 | 70 | 101 | 4.0 | 9.0 | 0.00 | 0.00 | 0.00 | 88 | 992.9 |
| 20260505092504 | 70 | 12 | 2.0 | 6.0 | 0.00 | 0.00 | 0.00 | 88 | 992.8 |
| 20260505091004 | 70 | 268 | 5.0 | 13.0 | 0.00 | 0.00 | 0.00 | 87 | 993.1 |
| 20260505090504 | 70 | 321 | 3.0 | 8.0 | 0.00 | 0.00 | 0.00 | 87 | 993.1 |
| 20260505085504 | 70 | 18 | 5.0 | 9.0 | 0.00 | 0.00 | 0.00 | 87 | 993.1 |
| 20260505084504 | 70 | 18 | 5.0 | 13.0 | 0.00 | 0.00 | 0.00 | 87 | 993.4 |
| 20260505084004 | 70 | 333 | 3.0 | 8.0 | 0.00 | 0.00 | 0.00 | 87 | 993.2 |
| 20260505083504 | 70 | 296 | 3.0 | 8.0 | 0.00 | 0.00 | 0.00 | 87 | 993.2 |
| 20260505083004 | 70 | 324 | 5.0 | 8.0 | 0.00 | 0.00 | 0.00 | 86 | 993.2 |
| 20260505082504 | 70 | 297 | 6.0 | 12.0 | 0.00 | 0.00 | 0.00 | 86 | 993.3 |
| 20260505082004 | 70 | 225 | 3.0 | 8.0 | 0.00 | 0.00 | 0.00 | 86 | 993.3 |
| 20260505081504 | 70 | 294 | 3.0 | 10.0 | 0.00 | 0.00 | 0.00 | 86 | 993.3 |
| 20260505081004 | 70 | 261 | 4.0 | 9.0 | 0.00 | 0.00 | 0.00 | 86 | 993.3 |
| 20260505080504 | 70 | 324 | 3.0 | 10.0 | 0.00 | 0.00 | 0.00 | 86 | 993.4 |
| 20260505080004 | 70 | 287 | 5.0 | 14.0 | 0.00 | 0.00 | 0.00 | 86 | 993.4 |
| 20260505075504 | 70 | 322 | 3.0 | 14.0 | 0.00 | 0.00 | 0.00 | 86 | 993.5 |
| 20260505074504 | 70 | 322 | 3.0 | 10.0 | 0.00 | 0.00 | 0.00 | 86 | 993.5 |
| 20260505073504 | 70 | 344 | 3.0 | 9.0 | 0.00 | 0.00 | 0.00 | 86 | 993.8 |
| 20260505072504 | 70 | 312 | 4.0 | 9.0 | 0.00 | 0.00 | 0.00 | 86 | 993.9 |
| 20260505072004 | 70 | 315 | 5.0 | 10.0 | 0.00 | 0.00 | 0.00 | 86 | 994.1 |
| 20260505071504 | 70 | 344 | 5.0 | 9.0 | 0.00 | 0.00 | 0.00 | 86 | 994.1 |
| 20260505071004 | 70 | 281 | 2.0 | 12.0 | 0.00 | 0.00 | 0.00 | 86 | 994.3 |
| 20260505070504 | 70 | 331 | 3.0 | 12.0 | 0.00 | 0.00 | 0.00 | 86 | 994.2 |
| 20260505070004 | 70 | 63 | 3.0 | 12.0 | 0.00 | 0.00 | 0.00 | 86 | 994.3 |
| 20260505065504 | 70 | 357 | 3.0 | 7.0 | 0.00 | 0.00 | 0.00 | 86 | 994.4 |
| 20260505065004 | 70 | 220 | 6.0 | 14.0 | 0.00 | 0.00 | 0.00 | 86 | 994.5 |
| 20260505063004 | 70 | 296 | 3.0 | 8.0 | 0.00 | 0.00 | 0.00 | 85 | 994.4 |
| 20260505062504 | 71 | 264 | 5.0 | 8.0 | 0.00 | 0.00 | 0.00 | 85 | 994.6 |
| 20260505062005 | 71 | 286 | 3.0 | 8.0 | 0.00 | 0.00 | 0.00 | 85 | 994.7 |
| 20260505061505 | 71 | 252 | 5.0 | 10.0 | 0.00 | 0.00 | 0.00 | 85 | 994.6 |
| 20260505061004 | 71 | 267 | 2.0 | 5.0 | 0.00 | 0.00 | 0.00 | 85 | 994.7 |
| 20260505060504 | 71 | 318 | 5.0 | 10.0 | 0.00 | 0.00 | 0.00 | 85 | 994.7 |
| 20260505060005 | 71 | 280 | 2.0 | 9.0 | 0.00 | 0.00 | 0.00 | 85 | 994.7 |
| 20260505055505 | 71 | 264 | 5.0 | 13.0 | 0.00 | 0.00 | 0.00 | 85 | 994.6 |
| 20260505055005 | 71 | 263 | 4.0 | 9.0 | 0.00 | 0.00 | 0.00 | 84 | 994.5 |
| 20260505054504 | 71 | 315 | 5.0 | 8.0 | 0.00 | 0.00 | 0.00 | 84 | 994.6 |
| 20260505054004 | 71 | 298 | 7.0 | 13.0 | 0.00 | 0.00 | 0.00 | 84 | 994.6 |
| 20260505053504 | 71 | 273 | 4.0 | 9.0 | 0.00 | 0.00 | 0.00 | 84 | 994.7 |
| 20260505053005 | 71 | 341 | 5.0 | 13.0 | 0.00 | 0.00 | 0.00 | 84 | 994.6 |
| 20260505051504 | 71 | 268 | 5.0 | 13.0 | 0.00 | 0.00 | 0.00 | 84 | 994.6 |
| 20260505050504 | 71 | 311 | 5.0 | 9.0 | 0.00 | 0.00 | 0.00 | 84 | 994.4 |
| 20260505041504 | 72 | 320 | 3.0 | 6.0 | 0.00 | 0.00 | 0.00 | 82 | 994.6 |
| 20260505040504 | 72 | 284 | 2.0 | 6.0 | 0.00 | 0.00 | 0.00 | 82 | 994.5 |
| 20260505040005 | 72 | 324 | 2.0 | 6.0 | 0.00 | 0.00 | 0.00 | 81 | 994.5 |
| 20260505035004 | 72 | 285 | 2.0 | 6.0 | 0.00 | 0.00 | 0.00 | 81 | 994.5 |
| 20260505033504 | 73 | 300 | 3.0 | 9.0 | 0.00 | 0.00 | 0.00 | 80 | 994.4 |
| 20260505031004 | 73 | 337 | 3.0 | 6.0 | 0.00 | 0.00 | 0.00 | 78 | 994.4 |
| 20260505030504 | 73 | 298 | 3.0 | 10.0 | 0.00 | 0.00 | 0.00 | 77 | 994.6 |
| 20260505030004 | 74 | 237 | 3.0 | 9.0 | 0.00 | 0.00 | 0.00 | 77 | 994.5 |
| 20260505025504 | 74 | 274 | 3.0 | 9.0 | 0.00 | 0.00 | 0.00 | 76 | 994.5 |
| 20260505025005 | 74 | 270 | 4.0 | 7.0 | 0.00 | 0.00 | 0.00 | 75 | 994.7 |
| 20260505024504 | 74 | 343 | 2.0 | 6.0 | 0.00 | 0.00 | 0.00 | 74 | 994.5 |
| 20260505024005 | 74 | 217 | 2.0 | 5.0 | 0.00 | 0.00 | 0.00 | 74 | 994.6 |
| 20260505023504 | 74 | 271 | 2.0 | 5.0 | 0.00 | 0.00 | 0.00 | 73 | 994.6 |
| 20260505023004 | 74 | 266 | 1.0 | 3.0 | 0.00 | 0.00 | 0.00 | 73 | 994.6 |
| 20260505022504 | 74 | 283 | 1.0 | 6.0 | 0.00 | 0.00 | 0.00 | 72 | 994.6 |
| 20260505022005 | 75 | 280 | 1.0 | 3.0 | 0.00 | 0.00 | 0.00 | 72 | 994.4 |
| 20260505021504 | 75 | 292 | 2.0 | 5.0 | 0.00 | 0.00 | 0.00 | 72 | 994.4 |
| 20260505021005 | 75 | 290 | 3.0 | 7.0 | 0.00 | 0.00 | 0.00 | 71 | 994.3 |
| 20260505020504 | 75 | 103 | 3.0 | 7.0 | 0.00 | 0.00 | 0.00 | 71 | 994.2 |
| 20260505020004 | 75 | 198 | 5.0 | 10.0 | 0.00 | 0.00 | 0.00 | 71 | 994.3 |
| 20260505015504 | 75 | 285 | 2.0 | 9.0 | 0.00 | 0.00 | 0.00 | 70 | 994.2 |
| 20260505015004 | 75 | 0 | 2.0 | 7.0 | 0.00 | 0.00 | 0.00 | 70 | 994.3 |
| 20260505014504 | 75 | 302 | 2.0 | 5.0 | 0.00 | 0.00 | 0.00 | 69 | 994.4 |
| 20260505014005 | 75 | 274 | 2.0 | 5.0 | 0.00 | 0.00 | 0.00 | 69 | 994.4 |
| 20260505013504 | 76 | 289 | 2.0 | 7.0 | 0.00 | 0.00 | 0.00 | 67 | 994.4 |
| 20260505013004 | 76 | 345 | 3.0 | 8.0 | 0.00 | 0.00 | 0.00 | 67 | 994.5 |
| 20260505012504 | 76 | 260 | 3.0 | 9.0 | 0.00 | 0.00 | 0.00 | 67 | 994.3 |
| 20260505011504 | 76 | 292 | 3.0 | 7.0 | 0.00 | 0.00 | 0.00 | 66 | 994.3 |
| 20260505011004 | 76 | 309 | 5.0 | 10.0 | 0.00 | 0.00 | 0.00 | 65 | 994.3 |
| 20260505010505 | 77 | 224 | 3.0 | 12.0 | 0.00 | 0.00 | 0.00 | 65 | 994.3 |
| 20260505010005 | 77 | 19 | 6.0 | 9.0 | 0.00 | 0.00 | 0.00 | 64 | 994.4 |
| 20260505005504 | 77 | 222 | 3.0 | 9.0 | 0.00 | 0.00 | 0.00 | 64 | 994.3 |
| 20260505005005 | 77 | 268 | 2.0 | 6.0 | 0.00 | 0.00 | 0.00 | 64 | 994.3 |
| 20260505004504 | 77 | 301 | 3.0 | 9.0 | 0.00 | 0.00 | 0.00 | 63 | 994.3 |
| 20260505004004 | 78 | 246 | 4.0 | 10.0 | 0.00 | 0.00 | 0.00 | 63 | 994.3 |
| 20260505003505 | 78 | 299 | 3.0 | 9.0 | 0.00 | 0.00 | 0.00 | 63 | 994.3 |
| 20260505003004 | 78 | 297 | 5.0 | 10.0 | 0.00 | 0.00 | 0.00 | 62 | 994.4 |
| 20260505002504 | 79 | 311 | 3.0 | 8.0 | 0.00 | 0.00 | 0.00 | 62 | 994.3 |
| 20260505002004 | 79 | 336 | 3.0 | 10.0 | 0.00 | 0.00 | 0.00 | 61 | 994.2 |
| 20260505001504 | 79 | 340 | 2.0 | 10.0 | 0.00 | 0.00 | 0.00 | 61 | 994.2 |
| 20260505001004 | 79 | 294 | 4.0 | 10.0 | 0.00 | 0.00 | 0.00 | 60 | 994.2 |
| 20260505000505 | 80 | 353 | 7.0 | 17.0 | 0.00 | 0.00 | 0.00 | 60 | 994.0 |
| 20260505000004 | 80 | 334 | 5.0 | 15.0 | 0.00 | 0.00 | 0.00 | 60 | 994.1 |
| 20260504235505 | 80 | 346 | 5.0 | 14.0 | 0.00 | 0.00 | 0.00 | 60 | 994.3 |
| 20260504234504 | 81 | 331 | 4.0 | 8.0 | 0.00 | 0.00 | 0.00 | 59 | 994.5 |
| 20260504234004 | 81 | 331 | 3.0 | 8.0 | 0.00 | 0.00 | 0.00 | 58 | 994.3 |
| 20260504233504 | 81 | 165 | 5.0 | 13.0 | 0.00 | 0.00 | 0.00 | 59 | 994.3 |
| 20260504233005 | 81 | 276 | 5.0 | 8.0 | 0.00 | 0.00 | 0.00 | 58 | 994.4 |
| 20260504232504 | 81 | 296 | 3.0 | 8.0 | 0.00 | 0.00 | 0.00 | 58 | 994.5 |
| 20260504232004 | 81 | 303 | 5.0 | 8.0 | 0.00 | 0.00 | 0.00 | 58 | 994.6 |
| 20260504231505 | 81 | 329 | 3.0 | 9.0 | 0.00 | 0.00 | 0.00 | 58 | 994.5 |
| 20260504231004 | 81 | 340 | 5.0 | 9.0 | 0.00 | 0.00 | 0.00 | 57 | 994.5 |
| 20260504230504 | 81 | 278 | 5.0 | 10.0 | 0.00 | 0.00 | 0.00 | 57 | 994.7 |
| 20260504230005 | 82 | 118 | 3.0 | 14.0 | 0.00 | 0.00 | 0.00 | 56 | 994.7 |
| 20260504225504 | 83 | 308 | 5.0 | 14.0 | 0.00 | 0.00 | 0.00 | 55 | 994.7 |
| 20260504225005 | 83 | 259 | 3.0 | 10.0 | 0.00 | 0.00 | 0.00 | 55 | 994.7 |
| 20260504224005 | 83 | 300 | 3.0 | 9.0 | 0.00 | 0.00 | 0.00 | 56 | 994.9 |
| 20260504223505 | 83 | 228 | 5.0 | 10.0 | 0.00 | 0.00 | 0.00 | 55 | 994.9 |
| 20260504223004 | 83 | 282 | 3.0 | 8.0 | 0.00 | 0.00 | 0.00 | 55 | 994.9 |
| 20260504222505 | 83 | 212 | 4.0 | 9.0 | 0.00 | 0.00 | 0.00 | 55 | 994.8 |
| 20260504222005 | 83 | 304 | 5.0 | 10.0 | 0.00 | 0.00 | 0.00 | 56 | 995.0 |
| 20260504221504 | 83 | 303 | 3.0 | 10.0 | 0.00 | 0.00 | 0.00 | 55 | 995.2 |
| 20260504221005 | 83 | 347 | 3.0 | 14.0 | 0.00 | 0.00 | 0.00 | 55 | 995.1 |
| 20260504220504 | 83 | 302 | 5.0 | 12.0 | 0.00 | 0.00 | 0.00 | 56 | 995.0 |
| 20260504215504 | 83 | 279 | 4.0 | 12.0 | 0.00 | 0.00 | 0.00 | 55 | 995.3 |
| 20260504215004 | 83 | 275 | 5.0 | 12.0 | 0.00 | 0.00 | 0.00 | 55 | 995.2 |
| 20260504214505 | 84 | 321 | 5.0 | 8.0 | 0.00 | 0.00 | 0.00 | 55 | 995.1 |
| 20260504214004 | 83 | 321 | 3.0 | 9.0 | 0.00 | 0.00 | 0.00 | 55 | 995.2 |
| 20260504213004 | 83 | 16 | 3.0 | 13.0 | 0.00 | 0.00 | 0.00 | 55 | 995.2 |
| 20260504212504 | 83 | 10 | 3.0 | 9.0 | 0.00 | 0.00 | 0.00 | 55 | 995.4 |
| 20260504212004 | 84 | 288 | 5.0 | 10.0 | 0.00 | 0.00 | 0.00 | 54 | 995.6 |
| 20260504211504 | 83 | 264 | 2.0 | 8.0 | 0.00 | 0.00 | 0.00 | 55 | 995.8 |
| 20260504211004 | 83 | 346 | 3.0 | 9.0 | 0.00 | 0.00 | 0.00 | 55 | 995.9 |
| 20260504210504 | 83 | 315 | 5.0 | 8.0 | 0.00 | 0.00 | 0.00 | 56 | 996.0 |
| 20260504205504 | 82 | 346 | 3.0 | 10.0 | 0.00 | 0.00 | 0.00 | 56 | 996.2 |
| 20260504205004 | 82 | 87 | 5.0 | 14.0 | 0.00 | 0.00 | 0.00 | 57 | 996.3 |
| 20260504204504 | 82 | 288 | 3.0 | 10.0 | 0.00 | 0.00 | 0.00 | 57 | 996.3 |
| 20260504203504 | 82 | 261 | 6.0 | 9.0 | 0.00 | 0.00 | 0.00 | 56 | 996.3 |
| 20260504203004 | 82 | 347 | 2.0 | 9.0 | 0.00 | 0.00 | 0.00 | 58 | 996.4 |
| 20260504202504 | 81 | 267 | 5.0 | 9.0 | 0.00 | 0.00 | 0.00 | 56 | 996.6 |
| 20260504202004 | 81 | 267 | 5.0 | 9.0 | 0.00 | 0.00 | 0.00 | 57 | 996.6 |
| 20260504201505 | 82 | 249 | 6.0 | 15.0 | 0.00 | 0.00 | 0.00 | 56 | 996.7 |
| 20260504201004 | 82 | 300 | 4.0 | 15.0 | 0.00 | 0.00 | 0.00 | 57 | 996.8 |
| 20260504200004 | 81 | 290 | 3.0 | 9.0 | 0.00 | 0.00 | 0.00 | 58 | 997.0 |